Other Public Products
Issued by NWS Charleston, SC

Home | Current Version | Previous Version | Text Only | Print | Product List | Glossary On
Versions: 1 2 3 4 5 6 7 8 9 10 11 12 13 14 15 16 17 18 19 20 21 22 23 24 25 26 27 28 29 30 31 32 33 34 35 36 37 38 39 40 41 42 43 44 45 46 47 48 49 50
141
FPUS82 KCHS 271126
OPUCHS

TEST...KCHS/KSAV Gateway Observations...TEST
National Weather Service Charleston SC
600 AM EST MON FEB 27 2017

NOTE: "fair" indicates few or no clouds below 12,000 feet with no
significant weather and/or obstructions to visibility.

SCZ050-WAZ558-NCZ071-TXZ119-213-PAZ071-DCZ001-FLZ074-172-MI076-
NYZ176-178-MAZ016-IL014-TNZ027-NJZ106-GAZ044-MD014-271200-
...Gateway Observations for Charleston International...

CITY           SKY/WX    TMP DP  RH WIND       PRES   REMARKS
Chas Airport   PTCLDY    42  39  89 NE3       30.32S
Seattle        CLOUDY    36  34  92 SE5       29.76S WCI  32
Charlotte      MOCLDY    40  25  55 N3        30.33R
Dallas DFW     CLOUDY    62  59  90 CALM      29.90R
Dallas Love    CLOUDY    63  59  87 SE7       29.91S
Philladelphia  MOCLDY    34  25  69 SW3       30.39S
Wash National  MOCLDY    37  32  82 VRB3      30.38R
Baltimore      PTCLDY    27  23  85 CALM      30.37S
Miami          PTCLDY    75  65  70 E12       30.16R
Detroit        CLOUDY    32  24  72 S8        30.17R WCI  25
Newark         CLEAR     30  19  63 SW9       30.38R WCI  22
Laguardia      CLEAR     38  18  44 SW8       30.37R WCI  32
J F K          CLEAR     36  25  64 SW15      30.40R WCI  27
Boston Logan   NOT AVBL
Ft. Lauderdale PTCLDY    75  66  73 SE15      30.16R
Chicago O`Hare PTCLDY    29  23  78 CALM      30.11R
Chicago Midway MOCLDY    34  25  69 S5        30.12R WCI  30
Houston Bush   CLOUDY    68  66  93 E3        29.95R
Houston Hobby  CLOUDY    70  68  93 SE3       29.95R
Nashville      CLOUDY    46  38  73 SE3       30.21R
Atlanta        CLOUDY    47  28  47 E7        30.24R

$$

GAZ044-118-TXZ119-213-NCZ071-DCZ001-MDZ014-506-PAZ021-071-NJZ106-
NYZ176-178-MAZ106-OHZ011-021-055-MIZ076-KYZ091-ILZ014-INZ047-
MNZ060-ONZ431-271200-
...Gateway Observations for Savannah International...

CITY           SKY/WX    TMP DP  RH WIND       PRES   REMARKS
Savannah Arpt  CLEAR     49  44  83 E5        30.28S
Atlanta        CLOUDY    47  28  47 E7        30.24R
Charlotte      MOCLDY    40  25  55 N3        30.33R
Dallas DFW     CLOUDY    62  59  90 CALM      29.90R
Houston Bush   CLOUDY    68  66  93 E3        29.95R
Wash National  MOCLDY    37  32  82 VRB3      30.38R
Wash Dulles    PTCLDY    25  20  81 CALM      30.36R
Baltimore      PTCLDY    27  23  85 CALM      30.37S
Philadelphia   MOCLDY    34  25  69 SW3       30.39S
Newark         CLEAR     30  19  63 SW9       30.38R WCI  22
Laguardia      CLEAR     38  18  44 SW8       30.37R WCI  32
J F K          CLEAR     36  25  64 SW15      30.40R WCI  27
Boston         NOT AVBL
Pittsburg      CLOUDY    34  16  47 S5        30.25R WCI  30
Akron          CLOUDY    35  17  47 S7        30.22R WCI  29
Cleveland      CLOUDY    38  18  44 S9        30.23R WCI  31
Cincinnati     LGT RAIN  44  30  57 S7        30.22R
Columbus       CLOUDY    38  23  54 S6        30.24R WCI  34
Detroit        CLOUDY    32  24  72 S8        30.17R WCI  25
Chicago O`Hare PTCLDY    29  23  78 CALM      30.11R
Minneapolis    PTCLDY    23  19  85 SE7       29.95R WCI  15
Indianapolis   CLOUDY    40  33  76 SE6       30.19R WCI  36
Toronto Canada PTCLDY    36  23  60 SW10      30.10R WCI  28

$$




USA.gov is the U.S. government's official web portal to all federal, state and local government web resources and services.